Evansville, IN

1:47 AM CDT on October 23, 2019 (GMT -0500)
Evansville Regional

Weather History for KEVV - July, 2019

Change the Weather History Date:

Sunday, July 21, 2019

  Actual Average Record
Temperature  
Mean Temperature 83 °F 78 °F  
Max Temperature 94 °F 88 °F 103 °F (1901)
Min Temperature 72 °F 68 °F 52 °F (1944)
Degree Days  
Heating Degree Days 0 0  
Month to date heating degree days 0 0  
Since 1 June heating degree days 4 6  
Since 1 July heating degree days 0 0  
Cooling Degree Days 18 13  
Month to date cooling degree days 333 273  
Year to date cooling degree days 785 706  
Since 1 June cooling degree days 597 571  
Growing Degree Days 32 (Base 50)    
Moisture  
Dew Point 73 °F    
Average Humidity 75    
Maximum Humidity 93    
Minimum Humidity 56    
Precipitation  
Precipitation 1.10 in 0.12 in 2.50 in (1969)
Month to date precipitation 2.18 2.74  
Year to date precipitation 39.46 26.76  
Snow  
Snow 0.00 in 0.00 in - ()
Month to date snowfall 0.0 0.0  
Since 1 June snowfall 0.0 0.0  
Since 1 July snowfall 0.0 0.0  
Snow Depth 0.00 in    
Sea Level Pressure  
Sea Level Pressure 29.92 in    
Wind  
Wind Speed 7 mph (SW)    
Max Wind Speed 20 mph    
Max Gust Speed 30 mph    
Visibility 8 miles    
Events Rain , Thunderstorm    
T = Trace of Precipitation, MM = Missing Value Source: NWS Daily Summary

Daily Weather History Graph

Daily Weather History Graph

Search for Another Location

Airport or City:

Astronomy

Jul. 21, 2019 Rise Set
Actual Time 5:43 AM CDT 8:08 PM CDT
Civil Twilight 5:13 AM CDT 8:38 PM CDT
Nautical Twilight 4:36 AM CDT 9:16 PM CDT
Astronomical Twilight 3:55 AM CDT 9:57 PM CDT
Moon 11:07 PM CDT (7/21) 10:00 AM CDT (7/21)
Length of Visible Light 15h 25m
Length of Day
14h 24m
Waning Gibbous, 80% of the Moon is Illuminated
Jul 21
Waning Gibbous
Jul 24
Last Quarter
Jul 31
New
Aug 7
First Quarter
Aug 15
Full

Hourly Weather History & Observations

Time (CDT) Temp. Heat Index Dew Point Humidity Pressure Visibility Wind Dir Wind Speed Gust Speed Precip Events Conditions
12:54 AM 79.0 °F - 73.0 °F 82% 29.93 in 10.0 mi SSW 3.5 mph - N/A   Clear
1:54 AM 78.1 °F - 73.0 °F 84% 29.93 in 10.0 mi Calm Calm - N/A   Clear
2:54 AM 77.0 °F - 73.0 °F 88% 29.91 in 10.0 mi Calm Calm - N/A   Clear
3:54 AM 77.0 °F - 73.0 °F 88% 29.92 in 10.0 mi Calm Calm - N/A   Clear
4:54 AM 77.0 °F - 73.0 °F 88% 29.93 in 10.0 mi WSW 3.5 mph - N/A   Scattered Clouds
5:54 AM 77.0 °F - 73.0 °F 88% 29.94 in 10.0 mi South 4.6 mph - N/A   Partly Cloudy
6:54 AM 78.1 °F - 73.9 °F 87% 29.95 in 10.0 mi South 4.6 mph - N/A   Clear
7:54 AM 81.0 °F 86.2 °F 73.9 °F 79% 29.95 in 10.0 mi SSW 6.9 mph - N/A   Clear
8:54 AM 84.0 °F 91.9 °F 75.0 °F 74% 29.95 in 10.0 mi SW 6.9 mph - N/A   Clear
9:54 AM 86.0 °F 96.0 °F 75.9 °F 72% 29.95 in 10.0 mi SSW 8.1 mph - N/A   Clear
10:54 AM 89.1 °F 100.2 °F 75.9 °F 65% 29.96 in 10.0 mi SW 6.9 mph - N/A   Scattered Clouds
11:54 AM 90.0 °F 100.2 °F 75.0 °F 61% 29.94 in 10.0 mi SW 8.1 mph - N/A   Scattered Clouds
12:54 PM 91.9 °F 101.3 °F 73.9 °F 55% 29.92 in 10.0 mi SW 11.5 mph - N/A   Partly Cloudy
1:54 PM 91.9 °F 101.3 °F 73.9 °F 55% 29.89 in 10.0 mi SSW 11.5 mph - N/A   Scattered Clouds
2:54 PM 91.0 °F 99.3 °F 73.0 °F 55% 29.88 in 10.0 mi SW 15.0 mph - N/A   Scattered Clouds
3:54 PM 90.0 °F 99.0 °F 73.9 °F 59% 29.88 in 10.0 mi WSW 11.5 mph - N/A   Clear
4:54 PM 91.0 °F 100.4 °F 73.9 °F 57% 29.88 in 10.0 mi SW 11.5 mph - N/A   Clear
5:54 PM 90.0 °F 97.9 °F 73.0 °F 57% 29.86 in 10.0 mi SSW 11.5 mph - N/A   Clear
6:29 PM 87.1 °F 95.4 °F 73.9 °F 65% 29.86 in 10.0 mi SSW 11.5 mph - N/A Thunderstorm Clear
6:54 PM 87.1 °F 96.3 °F 75.0 °F 67% 29.87 in 10.0 mi SSW 10.4 mph - N/A   Clear
7:01 PM 87.1 °F 96.3 °F 75.0 °F 67% 29.89 in 10.0 mi SW 11.5 mph 18.4 mph N/A Thunderstorm Clear
7:20 PM 86.0 °F 95.1 °F 75.0 °F 70% 29.91 in 10.0 mi SW 11.5 mph - N/A Thunderstorm Thunderstorm
7:42 PM 75.0 °F - 70.0 °F 84% 29.92 in 2.5 mi NW 17.3 mph 28.8 mph 0.00 in Rain , Thunderstorm Heavy Thunderstorms and Rain
7:46 PM 73.0 °F - 70.0 °F 90% 29.93 in 1.2 mi NW 15.0 mph 28.8 mph 0.13 in Rain , Thunderstorm Heavy Thunderstorms and Rain
7:54 PM 73.0 °F - 70.0 °F 90% 29.92 in 0.8 mi WNW 16.1 mph 29.9 mph 0.47 in Rain , Thunderstorm Heavy Thunderstorms and Rain
8:00 PM 73.9 °F - 70.0 °F 87% 29.93 in 1.5 mi West 9.2 mph 29.9 mph 0.04 in Rain , Thunderstorm Heavy Thunderstorms and Rain
8:12 PM 73.0 °F - 71.1 °F 93% 29.94 in 5.0 mi North - - 0.17 in Rain Light Rain
8:22 PM 73.0 °F - 70.0 °F 90% 29.94 in 5.0 mi North 10.4 mph 19.6 mph 0.17 in Rain , Thunderstorm Light Rain
8:32 PM 73.0 °F - 70.0 °F 90% 29.96 in 5.0 mi NE 4.6 mph 19.6 mph 0.18 in Rain , Thunderstorm Thunderstorms and Rain
8:54 PM 72.0 °F - 70.0 °F 93% 29.93 in 5.0 mi NNE 6.9 mph - 0.36 in Rain , Thunderstorm Light Thunderstorms and Rain
9:08 PM 73.0 °F - 70.0 °F 90% 29.96 in 9.0 mi NNE 5.8 mph - 0.01 in Rain , Thunderstorm Light Rain
9:15 PM 73.0 °F - 70.0 °F 90% 29.95 in 10.0 mi NNE 5.8 mph - 0.01 in Rain Light Rain
9:23 PM 73.0 °F - 70.0 °F 90% 29.96 in 10.0 mi NNE 5.8 mph - 0.02 in Rain , Thunderstorm Light Rain
9:47 PM 73.0 °F - 71.1 °F 93% 29.96 in 6.0 mi East 3.5 mph - 0.07 in Rain Rain
9:54 PM 73.0 °F - 71.1 °F 93% 29.95 in 6.0 mi NNE 3.5 mph - 0.08 in Rain Rain
10:54 PM 73.0 °F - 71.1 °F 93% 29.93 in 8.0 mi Calm Calm - 0.16 in Rain Light Rain
11:52 PM 73.4 °F - 71.6 °F 94% 29.94 in 9.0 mi South 5.8 mph - 0.02 in Rain Light Rain
11:54 PM 73.0 °F - 71.1 °F 93% 29.93 in 9.0 mi SSW 4.6 mph - 0.02 in Rain Light Rain